Portada
METAR-TAF:

METAR-TAF

Aeropuertos :

Jark, Irán

latitud: 29-15-34N, longitud: 50-19-24E, altitud: 5 m

Observación

El informe se hizo hace 42 minutos, a las 04:00 UTC
Viento 4 kt del sureste
Temperatura 18°C
Humedad 83%
Presión 1013 hPa
Visibilidad: 5000 m
neblina

METAR: OIBQ 090400Z 13004KT 5000 BR NSC 18/15 Q1013

Hora: 08:12 (04:42 UTC)


TAF: falta

Observaciones y pronósticos meteorológicos de más de 4000 aeropuertos (mensajes METAR y TAF).

Los puntos amarillos y rojos representan las estaciones disponibles.

Ponga el ratón en el punto deseado para ver el nombre de la estación.

Haga clic para ver las observaciones y los pronósticos meteorológicos.

Para cambiar el mapa : haga clic en los botones verdes con una cruz de color negro para hacer un zoom, en el botón verde con un guión para alejar o en las flechas verdes para mapas adyacentes.


METAR-TAF: